User: anonymous   Login
Location: Raleigh
(35.7720°N, 78.6390°W)
Time: 23:26:35
(UTC-04:00)
Language:

FO-29 - Orbit

View from above orbital plane
View from above orbital plane
View from above satellite
View from above satellite

Ground track
Ground track

The orbit data is extracted from the following two-line orbital elements,

1 24278U 96046B   17175.63200944 -.00000024 +00000-0 +14163-4 0  9993
2 24278 098.5628 057.8989 0349673 318.2740 039.2206 13.53076683029630
Epoch (UTC): 24 June 2017 15:10:05
Eccentricity: 0.0349673
inclination: 98.5628°
perigee height: 801 km
apogee height: 1321 km
right ascension of ascending node: 57.8989°
argument of perigee: 318.2740°
revolutions per day: 13.53076683
mean anomaly at epoch: 39.2206°
orbit number at epoch: 2963

The dashed part of the orbit path shows where the satellite is in the earth's shadow,  

DLR